[[{"header":{"parameterUnit":"m.s-1","parameterCategory":1,"la1":30.2991,"la2":30.254,"lo1":-89.0895,"lo2":-89.0444,"dy":0.0017,"dx":0.0017,"nx":28,"ny":28,"refTime":"2025-05-14T21:00:00:Z","depth":0,"parameterNumber":2,"parameterNumberName":"U-component_of_WINDS"},"data":[0,0,0,0,0,0,0,0,0,0,0,0,0,0,0,0,0,0,0,0,0,0,0,0,0,0,0,0,0,0,0,0,0,0,0,0,0,0,0,0,0,0,0,0,0,0,0,0,0,0,0,0,0,0,0,0,0,0,2.0938,2.0938,0,2.0971,2.0972,2.0972,2.0942,2.0941,2.0939,2.0938,2.0972,2.0974,2.0976,0,0,0,0,0,0,0,0,0,0,0,0,0,2.0845,2.0846,2.0937,2.0938,2.0938,2.0971,2.0972,2.0972,2.0942,2.0941,2.0939,2.0938,2.0971,2.0973,2.0976,0,0,0,0,0,0,0,0,0,0,0,0,0,2.0882,2.0847,2.0937,2.0927,2.0927,2.0971,2.0972,2.0972,2.0942,2.0941,2.0939,2.0937,2.097,2.0973,2.0976,2.1032,0,0,2.0986,2.0987,0,0,0,0,0,0,0,0,2.088,2.0886,2.0928,2.0928,2.0928,2.0951,2.0951,2.0992,2.0943,2.0937,2.0938,2.0936,2.0966,2.0969,2.098,2.1033,2.1035,2.0986,2.0988,2.0989,2.099,0,0,0,0,0,0,0,2.0878,2.0884,2.0951,2.0929,2.0929,2.092,2.0924,2.0959,2.0961,2.0937,2.0935,2.0939,2.0965,2.0977,2.098,2.1035,2.0986,2.0988,2.099,2.0991,2.1134,2.1136,0,0,0,0,0,0,2.0876,2.0882,2.095,2.0952,2.0899,2.0924,2.0927,2.0945,2.0961,2.0961,2.0941,2.0938,2.0973,2.0977,2.0981,2.1046,2.0989,2.0992,2.0994,2.1132,2.1134,2.1136,0,0,0,0,0,0,2.0874,2.0883,2.0948,2.0916,2.0924,2.0927,2.0947,2.0947,2.0958,2.0964,2.0964,2.0952,2.0971,2.0977,2.1019,2.1046,2.0993,2.0996,2.113,2.1133,2.1135,2.1176,0,0,0,0,0,0,2.0872,2.0882,2.0904,2.0917,2.0926,2.0986,2.0949,2.0949,2.0963,2.096,2.0974,2.0975,2.097,2.1015,2.1022,2.105,2.0998,2.1127,2.1131,2.1134,2.1172,2.118,2.1186,0,0,0,0,0,2.0869,2.0914,2.0905,2.0914,2.0953,2.0988,2.0993,2.0987,2.0966,2.0987,2.099,2.0974,2.1043,2.1019,2.1027,2.1056,2.1125,2.113,2.1134,2.1169,2.1178,2.1186,0,0,0,0,0,0,2.0904,2.0916,2.0906,2.0957,2.0972,2.0983,2.101,2.0998,2.1018,2.1014,2.1005,2.1009,2.1053,2.1059,2.1033,2.111,2.108,2.1087,2.1104,2.1113,2.112,2.1117,2.1001,0,0,0,0,0,2.0918,2.0946,2.0954,2.0999,2.1006,2.1007,2.1022,2.1016,2.103,2.1036,2.1043,2.1057,2.1081,2.1098,2.1121,2.1173,2.1175,2.1197,2.1204,2.121,2.1215,2.1241,2.125,2.1151,2.1151,2.1151,0,0,2.0947,2.0956,2.0975,2.1006,2.1016,2.1044,2.1012,2.1044,2.1064,2.1041,2.108,2.1086,2.1101,2.1148,2.1169,2.1154,2.1243,2.1215,2.122,2.1222,2.1246,2.1256,2.1264,2.1154,2.1153,2.1153,0,0,2.1013,2.1024,2.1061,2.1072,2.1088,2.1088,2.1097,2.111,2.1112,2.1152,2.1135,2.1159,2.1202,2.1212,2.1224,2.1293,2.1278,2.13,2.1337,2.1363,2.1371,2.1378,2.14,2.1409,2.1306,2.1306,2.1306,0,2.1046,2.1088,2.1082,2.1114,2.1127,2.1108,2.1145,2.1156,2.1179,2.1188,2.1172,2.1223,2.1233,2.1281,2.1297,2.1308,2.1316,2.1298,2.137,2.1377,2.1383,2.1405,2.1414,2.1308,2.1308,2.1308,2.1308,0,2.1127,2.1156,2.1184,2.1207,2.1223,2.1258,2.1255,2.1273,2.1266,2.1267,2.1307,2.1317,2.134,2.1352,2.1345,2.1398,2.1389,2.1372,2.1342,2.1395,2.1415,2.1424,2.1312,2.1311,2.131,2.131,0,0,2.1216,2.1234,2.1244,2.1253,2.1269,2.1291,2.1324,2.1348,2.1362,2.1379,2.1405,2.1441,2.1424,2.1437,2.1431,2.1454,2.1505,2.1434,2.1434,2.1445,2.1563,2.1574,2.1584,2.1496,2.1498,2.1499,2.1561,0,2.1281,2.1338,2.1333,2.1387,2.1413,2.1395,2.1423,2.1435,2.1437,2.1459,2.1461,2.1485,2.1463,2.147,2.1492,2.1495,2.1529,2.149,2.1519,2.152,2.1514,2.1595,2.1608,2.1665,2.1569,2.157,2.1571,0,2.1365,2.1384,2.144,2.1451,2.1462,2.1487,2.1507,2.1529,2.1542,2.1541,2.1555,2.1545,2.1577,2.1547,2.159,2.1564,2.1575,2.1578,2.158,2.1581,2.1548,2.1597,2.1684,2.1692,2.1584,2.1583,2.1582,0,2.1421,2.1461,2.15,2.1508,2.1522,2.154,2.1547,2.1559,2.1572,2.159,2.1598,2.162,2.1631,2.1647,2.1642,2.1621,2.1685,2.1655,2.1684,2.1684,2.1697,2.1696,2.1786,2.1708,2.1707,2.1707,2.1707,0,2.1494,2.1528,2.1525,2.1548,2.1586,2.158,2.1617,2.1621,2.1632,2.1655,2.1641,2.1662,2.1656,2.1677,2.1674,2.1708,2.1714,2.1713,2.1712,2.1714,2.1714,2.172,2.1715,2.171,2.1709,2.1709,2.1708,0,2.1563,2.1562,2.1602,2.1613,2.1616,2.1643,2.1651,2.1672,2.1673,2.1702,2.1709,2.171,2.1734,2.1731,2.1758,2.1756,2.1798,2.1793,2.1794,2.1792,2.182,2.1817,2.1916,2.1928,2.1843,2.1844,2.1845,0,2.1608,2.1634,2.1647,2.1661,2.1669,2.1693,2.1707,2.1701,2.1716,2.1732,2.1751,2.1774,2.1792,2.1831,2.1834,2.1854,2.1848,2.1881,2.1851,2.1851,2.1846,2.1844,2.1846,2.1887,2.1887,2.1888,2.1889,0,2.1688,2.1686,2.1707,2.1727,2.1744,2.176,2.1774,2.1787,2.1782,2.1799,2.1824,2.1838,2.1865,2.1887,2.1906,2.1912,2.1899,2.1899,2.1906,2.1907,2.1906,2.1905,2.1808,2.1896,2.1895,2.1895,2.1894,2.1894,2.1745,2.1767,2.1779,2.1802,2.1812,2.1825,2.1846,2.1849,2.1869,2.1891,2.1886,2.1913,2.1924,2.1949,2.1956,2.1977,2.1964,2.1976,2.1978,2.1981,2.1983,2.1904,2.198,2.198,2.198,2.198,2.198,0,2.1822,2.1829,2.185,2.1871,2.1889,2.1876,2.1891,2.1906,2.193,2.1942,2.196,2.1987,2.2008,2.2013,2.2033,2.2048,2.2042,2.2053,2.2051,2.2052,2.1994,2.1985,2.2057,2.2057,2.2057,2.2057,2.2057,2.2057,2.1864,2.19,2.1899,2.1939,2.1946,2.1972,2.1981,2.1993,2.2002,2.2034,2.2051,2.2054,2.2062,2.2083,2.2101,2.2102,2.2109,2.2122,2.212,2.2065,2.2057,2.2049,2.204,2.2124,2.2124,2.2176,2.2177,2.2177]},{"header":{"parameterUnit":"m.s-1","parameterCategory":1,"la1":30.2991,"la2":30.254,"lo1":-89.0895,"lo2":-89.0444,"dy":0.0017,"dx":0.0017,"nx":28,"ny":28,"refTime":"2025-05-14T21:00:00:Z","depth":0,"parameterNumber":3,"parameterNumberName":"V-component_of_WINDS"},"data":[0,0,0,0,0,0,0,0,0,0,0,0,0,0,0,0,0,0,0,0,0,0,0,0,0,0,0,0,0,0,0,0,0,0,0,0,0,0,0,0,0,0,0,0,0,0,0,0,0,0,0,0,0,0,0,0,0,0,5.5597,5.5599,0,5.5703,5.5704,5.5706,5.5661,5.5658,5.5656,5.5653,5.5757,5.5762,5.5767,0,0,0,0,0,0,0,0,0,0,0,0,0,5.5352,5.5357,5.5597,5.5599,5.56,5.5703,5.5704,5.5706,5.5661,5.5658,5.5655,5.5652,5.5755,5.5761,5.5767,0,0,0,0,0,0,0,0,0,0,0,0,0,5.5458,5.5358,5.5597,5.559,5.5591,5.5703,5.5705,5.5706,5.5662,5.5658,5.5654,5.5651,5.5753,5.5761,5.5768,5.5891,0,0,5.5792,5.5795,0,0,0,0,0,0,0,0,5.5452,5.5467,5.559,5.5591,5.5592,5.5665,5.5656,5.5768,5.5663,5.5635,5.5653,5.5649,5.5729,5.5738,5.5766,5.5896,5.5901,5.5792,5.5797,5.58,5.5802,0,0,0,0,0,0,0,5.5445,5.5462,5.5639,5.5592,5.5593,5.558,5.5591,5.5677,5.5702,5.5637,5.5634,5.5647,5.5729,5.5759,5.5769,5.5902,5.5792,5.5799,5.5804,5.5807,5.6138,5.6142,0,0,0,0,0,0,5.5438,5.5456,5.5636,5.5642,5.5511,5.5588,5.56,5.5645,5.5701,5.5706,5.565,5.5645,5.5748,5.576,5.5772,5.592,5.58,5.5807,5.5812,5.6134,5.6139,5.6144,0,0,0,0,0,0,5.5433,5.5454,5.5631,5.5549,5.557,5.5596,5.5647,5.5649,5.568,5.5711,5.5715,5.5678,5.5745,5.5761,5.5862,5.5923,5.5811,5.5818,5.6129,5.6136,5.6142,5.6218,0,0,0,0,0,0,5.5426,5.5453,5.5501,5.555,5.5575,5.5722,5.5651,5.5654,5.5694,5.5687,5.5737,5.5742,5.5744,5.5851,5.587,5.5932,5.5824,5.6124,5.6132,5.614,5.621,5.6226,5.624,0,0,0,0,0,5.5418,5.5517,5.5504,5.5526,5.5636,5.5726,5.5739,5.5741,5.5699,5.5747,5.5767,5.574,5.5914,5.5862,5.5883,5.5948,5.612,5.613,5.6139,5.6203,5.6223,5.6239,0,0,0,0,0,0,5.5473,5.5524,5.5509,5.5628,5.5673,5.5718,5.5779,5.5761,5.5818,5.5809,5.5807,5.5819,5.5924,5.5945,5.5887,5.607,5.601,5.6024,5.6052,5.6071,5.6085,5.6078,5.583,0,0,0,0,0,5.55,5.557,5.5609,5.571,5.5734,5.5753,5.5791,5.5789,5.5834,5.5853,5.588,5.5924,5.5988,5.603,5.6091,5.6213,5.6223,5.6268,5.6282,5.6294,5.6307,5.6372,5.6393,5.6175,5.6175,5.6175,0,0,5.5554,5.5591,5.5635,5.5723,5.5757,5.5828,5.5769,5.5846,5.5899,5.5864,5.5962,5.5983,5.6032,5.6144,5.6195,5.6166,5.6369,5.6306,5.6316,5.6322,5.6384,5.6405,5.6423,5.6181,5.618,5.6179,0,0,5.5691,5.5726,5.5814,5.585,5.5904,5.5915,5.5937,5.5984,5.5998,5.6096,5.6072,5.6133,5.6244,5.628,5.6312,5.6463,5.644,5.6482,5.656,5.6624,5.6641,5.6656,5.671,5.6729,5.6494,5.6494,5.6495,0,5.5752,5.586,5.5861,5.5941,5.598,5.5954,5.6042,5.6077,5.6147,5.6174,5.614,5.6279,5.631,5.643,5.6467,5.6494,5.6518,5.6477,5.6639,5.6654,5.6668,5.6719,5.674,5.6499,5.6499,5.6498,5.6498,0,5.5932,5.6007,5.6072,5.6142,5.6188,5.6272,5.6285,5.6331,5.6324,5.6339,5.6439,5.6476,5.6544,5.6572,5.6565,5.6691,5.6671,5.6639,5.6579,5.6694,5.6742,5.6761,5.6506,5.6504,5.6503,5.6502,0,0,5.6107,5.6177,5.6201,5.6233,5.629,5.6347,5.6429,5.6498,5.6537,5.6586,5.6654,5.6749,5.6719,5.6757,5.6753,5.681,5.6927,5.677,5.6771,5.6798,5.7067,5.7092,5.7115,5.6912,5.6916,5.6919,5.7063,0,5.6248,5.6394,5.6398,5.6531,5.66,5.6576,5.6647,5.6689,5.6705,5.6765,5.6781,5.6849,5.6805,5.6827,5.6882,5.6901,5.6981,5.689,5.6974,5.6978,5.6964,5.714,5.7166,5.7301,5.7082,5.7085,5.7088,0,5.6432,5.6489,5.663,5.6678,5.6707,5.6771,5.6834,5.6892,5.6938,5.6946,5.6988,5.6977,5.7059,5.6996,5.7109,5.7048,5.7082,5.7097,5.7102,5.711,5.704,5.7153,5.7344,5.7365,5.7117,5.7115,5.7113,0,5.6546,5.6658,5.6757,5.6784,5.6842,5.6888,5.6914,5.6957,5.6998,5.7052,5.7078,5.714,5.7174,5.7222,5.7227,5.7181,5.7341,5.7279,5.7349,5.7349,5.7384,5.7382,5.7584,5.7406,5.7405,5.7405,5.7404,0,5.6703,5.6791,5.6809,5.687,5.6966,5.6968,5.7064,5.7085,5.7124,5.7187,5.7169,5.7229,5.7232,5.7293,5.7297,5.739,5.7405,5.7413,5.7413,5.7415,5.7414,5.7438,5.7429,5.741,5.7409,5.7408,5.7407,0,5.6847,5.6863,5.6969,5.7016,5.7029,5.7098,5.7137,5.7195,5.7209,5.729,5.7308,5.733,5.7401,5.7411,5.7493,5.7496,5.7608,5.7598,5.7593,5.7592,5.7661,5.7655,5.7886,5.7917,5.7718,5.772,5.7721,0,5.6947,5.7014,5.7068,5.711,5.7139,5.7207,5.7249,5.7253,5.7297,5.7356,5.7406,5.7475,5.7531,5.7644,5.7667,5.7729,5.7721,5.7797,5.773,5.773,5.7722,5.7719,5.7725,5.7811,5.7813,5.7814,5.7816,0,5.7122,5.7127,5.7189,5.7255,5.7306,5.7357,5.7405,5.744,5.745,5.75,5.7574,5.7617,5.7702,5.777,5.7832,5.7857,5.7838,5.7837,5.7857,5.786,5.7854,5.7859,5.7629,5.7832,5.783,5.7829,5.7828,5.7828,5.7248,5.7306,5.7354,5.7424,5.746,5.7506,5.7563,5.7584,5.7646,5.7717,5.7715,5.7795,5.7839,5.7921,5.795,5.8012,5.7986,5.8015,5.8022,5.8029,5.8036,5.7844,5.8023,5.8022,5.8022,5.8021,5.8021,0,5.7423,5.7452,5.7517,5.7585,5.764,5.7619,5.7671,5.7718,5.779,5.7833,5.7889,5.7973,5.8039,5.8067,5.8132,5.8176,5.8169,5.8193,5.819,5.8196,5.8055,5.8032,5.8197,5.8197,5.8197,5.8197,5.8197,5.8197,5.752,5.7618,5.7628,5.7744,5.7772,5.7853,5.7884,5.7926,5.7961,5.8056,5.8112,5.813,5.8167,5.8234,5.8294,5.83,5.8325,5.8353,5.8355,5.8223,5.8205,5.8188,5.8167,5.8358,5.8358,5.8491,5.8492,5.8493]}]]